Location: Auckland
(36.8500°S, 174.7800°E)
Time: 14:49:58
(UTC+12:00)

ISS - Visible Passes

Search period start: 18 May 2021 00:00
Search period end: 28 May 2021 00:00
Orbit: 417 x 422 km, 51.6° (Epoch: 17 May)

Date Brightness Start Highest point End Pass type
(mag) Time Alt. Az. Time Alt. Az. Time Alt. Az.
19 May -0.6 06:26:03 10° N 06:28:32 19° NE 06:31:01 10° E visible
20 May -0.2 05:40:37 10° NE 05:41:16 10° NE 05:41:54 10° ENE visible
21 May -3.2 06:26:48 10° NW 06:30:10 63° NE 06:33:35 10° SE visible
22 May -2.0 05:39:44 10° NNW 05:42:47 33° NE 05:45:56 10° ESE visible
23 May -1.1 04:55:41 19° ENE 04:55:41 19° ENE 04:57:57 10° E visible
23 May -3.2 06:28:48 10° WNW 06:32:03 40° SW 06:35:20 10° SE visible
24 May -3.8 05:44:15 65° WSW 05:44:32 70° SW 05:47:58 10° SE visible
25 May -1.1 04:59:28 18° ESE 04:59:28 18° ESE 05:00:29 10° SE visible
25 May -2.0 06:32:28 13° WSW 06:34:10 18° SSW 06:36:37 10° SSE visible
26 May -2.1 05:47:27 22° S 05:47:27 22° S 05:49:28 10° SSE visible
27 May -1.3 06:35:54 10° SSW 06:36:30 10° SSW 06:37:05 10° S visible
